Year,Month,Day,Hour,Minute,Value (Times are PST for temperature in C)
2011,08,20,00,00,13.10
2011,08,20,00,01,13.10
2011,08,20,00,02,13.10
2011,08,20,00,03,13.10
2011,08,20,00,04,13.10
2011,08,20,00,05,13.10
2011,08,20,00,06,13.10
2011,08,20,00,07,13.10
2011,08,20,00,08,13.20
2011,08,20,00,09,13.20
2011,08,20,00,10,13.20
2011,08,20,00,11,13.20
2011,08,20,00,12,13.20
2011,08,20,00,13,13.20
2011,08,20,00,14,13.20
2011,08,20,00,15,13.20
2011,08,20,00,16,13.20
2011,08,20,00,17,13.20
2011,08,20,00,18,13.10
2011,08,20,00,19,13.10
2011,08,20,00,20,13.00
2011,08,20,00,21,13.00
2011,08,20,00,22,13.00
2011,08,20,00,23,13.00
2011,08,20,00,24,13.00
2011,08,20,00,25,12.90
2011,08,20,00,26,12.90
2011,08,20,00,27,12.90
2011,08,20,00,28,12.90
2011,08,20,00,29,12.90
2011,08,20,00,30,12.90
2011,08,20,00,31,12.90
2011,08,20,00,32,12.90
2011,08,20,00,33,12.90
2011,08,20,00,34,12.90
2011,08,20,00,35,12.90
2011,08,20,00,36,12.90
2011,08,20,00,37,12.90
2011,08,20,00,38,12.90
2011,08,20,00,39,12.90
2011,08,20,00,40,12.90
2011,08,20,00,41,12.90
2011,08,20,00,42,12.90
2011,08,20,00,43,12.90
2011,08,20,00,44,12.90
2011,08,20,00,45,12.90
2011,08,20,00,46,12.90
2011,08,20,00,47,12.90
2011,08,20,00,48,12.90
2011,08,20,00,49,12.90
2011,08,20,00,50,12.90
2011,08,20,00,51,12.90
2011,08,20,00,52,12.90
2011,08,20,00,53,13.00
2011,08,20,00,54,12.90
2011,08,20,00,55,12.90
2011,08,20,00,56,12.90
2011,08,20,00,57,12.90
2011,08,20,00,58,12.90
2011,08,20,00,59,12.80
2011,08,20,01,00,12.80
2011,08,20,01,01,12.70
2011,08,20,01,02,12.70
2011,08,20,01,03,12.60
2011,08,20,01,04,12.60
2011,08,20,01,05,12.60
2011,08,20,01,06,12.60
2011,08,20,01,07,12.60
2011,08,20,01,08,12.70
2011,08,20,01,09,12.70
2011,08,20,01,10,12.70
2011,08,20,01,11,12.70
2011,08,20,01,12,12.70
2011,08,20,01,13,12.70
2011,08,20,01,14,12.70
2011,08,20,01,15,12.70
2011,08,20,01,16,12.70
2011,08,20,01,17,12.70
2011,08,20,01,18,12.70
2011,08,20,01,19,12.70
2011,08,20,01,20,12.70
2011,08,20,01,21,12.70
2011,08,20,01,22,12.70
2011,08,20,01,23,12.70
2011,08,20,01,24,12.70
2011,08,20,01,25,12.70
2011,08,20,01,26,12.70
2011,08,20,01,27,12.70
2011,08,20,01,28,12.70
2011,08,20,01,29,12.60
2011,08,20,01,30,12.60
2011,08,20,01,31,12.60
2011,08,20,01,32,12.60
2011,08,20,01,33,12.60
2011,08,20,01,34,12.60
2011,08,20,01,35,12.60
2011,08,20,01,36,12.60
2011,08,20,01,37,12.60
2011,08,20,01,38,12.60
2011,08,20,01,39,12.60
2011,08,20,01,40,12.60
2011,08,20,01,41,12.60
2011,08,20,01,42,12.60
2011,08,20,01,43,12.60
2011,08,20,01,44,12.60
2011,08,20,01,45,12.50
2011,08,20,01,46,12.50
2011,08,20,01,47,12.50
2011,08,20,01,48,12.50
2011,08,20,01,49,12.50
2011,08,20,01,50,12.50
2011,08,20,01,51,12.50
2011,08,20,01,52,12.50
2011,08,20,01,53,12.50
2011,08,20,01,54,12.50
2011,08,20,01,55,12.50
2011,08,20,01,56,12.50
2011,08,20,01,57,12.50
2011,08,20,01,58,12.50
2011,08,20,01,59,12.40
2011,08,20,02,00,12.50
2011,08,20,02,01,12.50
2011,08,20,02,02,12.50
2011,08,20,02,03,12.50
2011,08,20,02,04,12.50
2011,08,20,02,05,12.50
2011,08,20,02,06,12.40
2011,08,20,02,07,12.40
2011,08,20,02,08,12.50
2011,08,20,02,09,12.50
2011,08,20,02,10,12.50
2011,08,20,02,11,12.50
2011,08,20,02,12,12.50
2011,08,20,02,13,12.50
2011,08,20,02,14,12.50
2011,08,20,02,15,12.50
2011,08,20,02,16,12.40
2011,08,20,02,17,12.40
2011,08,20,02,18,12.40
2011,08,20,02,19,12.40
2011,08,20,02,20,12.30
2011,08,20,02,21,12.30
2011,08,20,02,22,12.30
2011,08,20,02,23,12.30
2011,08,20,02,24,12.30
2011,08,20,02,25,12.30
2011,08,20,02,26,12.30
2011,08,20,02,27,12.30
2011,08,20,02,28,12.30
2011,08,20,02,29,12.30
2011,08,20,02,30,12.30
2011,08,20,02,31,12.30
2011,08,20,02,32,12.30
2011,08,20,02,33,12.20
2011,08,20,02,34,12.20
2011,08,20,02,35,12.20
2011,08,20,02,36,12.20
2011,08,20,02,37,12.20
2011,08,20,02,38,12.20
2011,08,20,02,39,12.20
2011,08,20,02,40,12.20
2011,08,20,02,41,12.20
2011,08,20,02,42,12.20
2011,08,20,02,43,12.20
2011,08,20,02,44,12.20
2011,08,20,02,45,12.20
2011,08,20,02,46,12.20
2011,08,20,02,47,12.20
2011,08,20,02,48,12.20
2011,08,20,02,49,12.20
2011,08,20,02,50,12.20
2011,08,20,02,51,12.20
2011,08,20,02,52,12.20
2011,08,20,02,53,12.20
2011,08,20,02,54,12.20
2011,08,20,02,55,12.20
2011,08,20,02,56,12.20
2011,08,20,02,57,12.30
2011,08,20,02,58,12.30
2011,08,20,02,59,12.30
2011,08,20,03,00,12.30
2011,08,20,03,01,12.30
2011,08,20,03,02,12.30
2011,08,20,03,03,12.30
2011,08,20,03,04,12.20
2011,08,20,03,05,12.20
2011,08,20,03,06,12.20
2011,08,20,03,07,12.20
2011,08,20,03,08,12.10
2011,08,20,03,09,12.10
2011,08,20,03,10,12.10
2011,08,20,03,11,12.00
2011,08,20,03,12,12.00
2011,08,20,03,13,12.00
2011,08,20,03,14,12.00
2011,08,20,03,15,12.00
2011,08,20,03,16,11.90
2011,08,20,03,17,11.90
2011,08,20,03,18,11.90
2011,08,20,03,19,11.90
2011,08,20,03,20,11.90
2011,08,20,03,21,11.90
2011,08,20,03,22,11.80
2011,08,20,03,23,11.80
2011,08,20,03,24,11.80
2011,08,20,03,25,11.80
2011,08,20,03,26,11.80
2011,08,20,03,27,11.80
2011,08,20,03,28,11.80
2011,08,20,03,29,11.80
2011,08,20,03,30,11.80
2011,08,20,03,31,11.80
2011,08,20,03,32,11.80
2011,08,20,03,33,11.70
2011,08,20,03,34,11.70
2011,08,20,03,35,11.70
2011,08,20,03,36,11.70
2011,08,20,03,37,11.70
2011,08,20,03,38,11.60
2011,08,20,03,39,11.60
2011,08,20,03,40,11.60
2011,08,20,03,41,11.60
2011,08,20,03,42,11.60
2011,08,20,03,43,11.60
2011,08,20,03,44,11.60
2011,08,20,03,45,11.60
2011,08,20,03,46,11.60
2011,08,20,03,47,11.60
2011,08,20,03,48,11.60
2011,08,20,03,49,11.60
2011,08,20,03,50,11.60
2011,08,20,03,51,11.50
2011,08,20,03,52,11.40
2011,08,20,03,53,11.40
2011,08,20,03,54,11.40
2011,08,20,03,55,11.40
2011,08,20,03,56,11.40
2011,08,20,03,57,11.40
2011,08,20,03,58,11.40
2011,08,20,03,59,11.40
2011,08,20,04,00,11.40
2011,08,20,04,01,11.40
2011,08,20,04,02,11.40
2011,08,20,04,03,11.40
2011,08,20,04,04,11.40
2011,08,20,04,05,11.40
2011,08,20,04,06,11.40
2011,08,20,04,07,11.40
2011,08,20,04,08,11.40
2011,08,20,04,09,11.40
2011,08,20,04,10,11.40
2011,08,20,04,11,11.40
2011,08,20,04,12,11.40
2011,08,20,04,13,11.40
2011,08,20,04,14,11.40
2011,08,20,04,15,11.40
2011,08,20,04,16,11.40
2011,08,20,04,17,11.40
2011,08,20,04,18,11.30
2011,08,20,04,19,11.30
2011,08,20,04,20,11.30
2011,08,20,04,21,11.40
2011,08,20,04,22,11.40
2011,08,20,04,23,11.40
2011,08,20,04,24,11.40
2011,08,20,04,25,11.30
2011,08,20,04,26,11.30
2011,08,20,04,27,11.30
2011,08,20,04,28,11.30
2011,08,20,04,29,11.30
2011,08,20,04,30,11.30
2011,08,20,04,31,11.30
2011,08,20,04,32,11.30
2011,08,20,04,33,11.30
2011,08,20,04,34,11.30
2011,08,20,04,35,11.30
2011,08,20,04,36,11.30
2011,08,20,04,37,11.30
2011,08,20,04,38,11.30
2011,08,20,04,39,11.30
2011,08,20,04,40,11.40
2011,08,20,04,41,11.40
2011,08,20,04,42,11.40
2011,08,20,04,43,11.30
2011,08,20,04,44,11.30
2011,08,20,04,45,11.30
2011,08,20,04,46,11.30
2011,08,20,04,47,11.30
2011,08,20,04,48,11.30
2011,08,20,04,49,11.30
2011,08,20,04,50,11.30
2011,08,20,04,51,11.30
2011,08,20,04,52,11.30
2011,08,20,04,53,11.30
2011,08,20,04,54,11.30
2011,08,20,04,55,11.30
2011,08,20,04,56,11.30
2011,08,20,04,57,11.30
2011,08,20,04,58,11.30
2011,08,20,04,59,11.30
2011,08,20,05,00,11.30
2011,08,20,05,01,11.30
2011,08,20,05,02,11.30
2011,08,20,05,03,11.30
2011,08,20,05,04,11.30
2011,08,20,05,05,11.30
2011,08,20,05,06,11.30
2011,08,20,05,07,11.30
2011,08,20,05,08,11.30
2011,08,20,05,09,11.30
2011,08,20,05,10,11.30
2011,08,20,05,11,11.30
2011,08,20,05,12,11.30
2011,08,20,05,13,11.30
2011,08,20,05,14,11.30
2011,08,20,05,15,11.30
2011,08,20,05,16,11.20
2011,08,20,05,17,11.20
2011,08,20,05,18,11.30
2011,08,20,05,19,11.30
2011,08,20,05,20,11.30
2011,08,20,05,21,11.30
2011,08,20,05,22,11.40
2011,08,20,05,23,11.40
2011,08,20,05,24,11.40
2011,08,20,05,25,11.40
2011,08,20,05,26,11.40
2011,08,20,05,27,11.40
2011,08,20,05,28,11.40
2011,08,20,05,29,11.40
2011,08,20,05,30,11.40
2011,08,20,05,31,11.40
2011,08,20,05,32,11.40
2011,08,20,05,33,11.40
2011,08,20,05,34,11.40
2011,08,20,05,35,11.30
2011,08,20,05,36,11.30
2011,08,20,05,37,11.20
2011,08,20,05,38,11.20
2011,08,20,05,39,11.20
2011,08,20,05,40,11.10
2011,08,20,05,41,11.10
2011,08,20,05,42,11.10
2011,08,20,05,43,11.10
2011,08,20,05,44,11.10
2011,08,20,05,45,11.10
2011,08,20,05,46,11.10
2011,08,20,05,47,11.00
2011,08,20,05,48,10.90
2011,08,20,05,49,10.90
2011,08,20,05,50,10.90
2011,08,20,05,51,10.90
2011,08,20,05,52,10.90
2011,08,20,05,53,10.90
2011,08,20,05,54,10.90
2011,08,20,05,55,11.00
2011,08,20,05,56,11.10
2011,08,20,05,57,11.10
2011,08,20,05,58,11.10
2011,08,20,05,59,11.10
2011,08,20,06,00,11.10
2011,08,20,06,01,11.10
2011,08,20,06,02,11.00
2011,08,20,06,03,10.90
2011,08,20,06,04,10.90
2011,08,20,06,05,10.90
2011,08,20,06,06,10.90
2011,08,20,06,07,10.90
2011,08,20,06,08,10.90
2011,08,20,06,09,10.90
2011,08,20,06,10,10.90
2011,08,20,06,11,10.90
2011,08,20,06,12,10.90
2011,08,20,06,13,10.90
2011,08,20,06,14,10.90
2011,08,20,06,15,10.90
2011,08,20,06,16,10.90
2011,08,20,06,17,10.90
2011,08,20,06,18,10.90
2011,08,20,06,19,10.90
2011,08,20,06,20,10.90
2011,08,20,06,21,10.90
2011,08,20,06,22,10.90
2011,08,20,06,23,10.90
2011,08,20,06,24,10.90
2011,08,20,06,25,10.90
2011,08,20,06,26,10.90
2011,08,20,06,27,10.90
2011,08,20,06,28,10.90
2011,08,20,06,29,10.90
2011,08,20,06,30,10.90
2011,08,20,06,31,10.90
2011,08,20,06,32,10.80
2011,08,20,06,33,10.90
2011,08,20,06,34,10.90
2011,08,20,06,35,10.90
2011,08,20,06,36,10.90
2011,08,20,06,37,11.00
2011,08,20,06,38,11.10
2011,08,20,06,39,11.10
2011,08,20,06,40,11.10
2011,08,20,06,41,11.10
2011,08,20,06,42,11.10
2011,08,20,06,43,11.10
2011,08,20,06,44,11.10
2011,08,20,06,45,11.10
2011,08,20,06,46,11.10
2011,08,20,06,47,11.10
2011,08,20,06,48,11.10
2011,08,20,06,49,11.10
2011,08,20,06,50,11.10
2011,08,20,06,51,11.10
2011,08,20,06,52,11.10
2011,08,20,06,53,11.10
2011,08,20,06,54,11.10
2011,08,20,06,55,11.10
2011,08,20,06,56,11.10
2011,08,20,06,57,11.10
2011,08,20,06,58,11.20
2011,08,20,06,59,11.20
2011,08,20,07,00,11.20
2011,08,20,07,01,11.30
2011,08,20,07,02,11.30
2011,08,20,07,03,11.40
2011,08,20,07,04,11.40
2011,08,20,07,05,11.40
2011,08,20,07,06,11.40
2011,08,20,07,07,11.50
2011,08,20,07,08,11.60
2011,08,20,07,09,11.60
2011,08,20,07,10,11.70
2011,08,20,07,11,11.80
2011,08,20,07,12,11.80
2011,08,20,07,13,11.90
2011,08,20,07,14,12.00
2011,08,20,07,15,12.10
2011,08,20,07,16,12.10
2011,08,20,07,17,12.30
2011,08,20,07,18,12.40
2011,08,20,07,19,12.50
2011,08,20,07,20,12.50
2011,08,20,07,21,12.60
2011,08,20,07,22,12.50
2011,08,20,07,23,12.50
2011,08,20,07,24,12.40
2011,08,20,07,25,12.30
2011,08,20,07,26,12.30
2011,08,20,07,27,12.30
2011,08,20,07,28,12.40
2011,08,20,07,29,12.50
2011,08,20,07,30,12.60
2011,08,20,07,31,12.70
2011,08,20,07,32,12.80
2011,08,20,07,33,12.90
2011,08,20,07,34,13.10
2011,08,20,07,35,13.20
2011,08,20,07,36,13.30
2011,08,20,07,37,13.30
2011,08,20,07,38,13.50
2011,08,20,07,39,13.60
2011,08,20,07,40,13.70
2011,08,20,07,41,13.80
2011,08,20,07,42,13.90
2011,08,20,07,43,14.00
2011,08,20,07,44,14.10
2011,08,20,07,45,14.20
2011,08,20,07,46,14.30
2011,08,20,07,47,14.40
2011,08,20,07,48,14.50
2011,08,20,07,49,14.60
2011,08,20,07,50,14.70
2011,08,20,07,51,14.90
2011,08,20,07,52,15.00
2011,08,20,07,53,15.10
2011,08,20,07,54,15.20
2011,08,20,07,55,15.20
2011,08,20,07,56,15.20
2011,08,20,07,57,15.10
2011,08,20,07,58,15.00
2011,08,20,07,59,15.00
2011,08,20,08,00,14.90
2011,08,20,08,01,14.90
2011,08,20,08,02,14.80
2011,08,20,08,03,14.80
2011,08,20,08,04,14.80
2011,08,20,08,05,14.70
2011,08,20,08,06,14.70
2011,08,20,08,07,14.70
2011,08,20,08,08,14.70
2011,08,20,08,09,14.70
2011,08,20,08,10,14.70
2011,08,20,08,11,14.80
2011,08,20,08,12,14.80
2011,08,20,08,13,14.80
2011,08,20,08,14,14.90
2011,08,20,08,15,15.00
2011,08,20,08,16,15.00
2011,08,20,08,17,15.10
2011,08,20,08,18,15.20
2011,08,20,08,19,15.30
2011,08,20,08,20,15.30
2011,08,20,08,21,15.40
2011,08,20,08,22,15.50
2011,08,20,08,23,15.50
2011,08,20,08,24,15.60
2011,08,20,08,25,15.70
2011,08,20,08,26,15.80
2011,08,20,08,27,15.90
2011,08,20,08,28,16.00
2011,08,20,08,29,16.10
2011,08,20,08,30,16.30
2011,08,20,08,31,16.60
2011,08,20,08,32,16.80
2011,08,20,08,33,17.00
2011,08,20,08,34,17.20
2011,08,20,08,35,17.40
2011,08,20,08,36,17.60
2011,08,20,08,37,17.80
2011,08,20,08,38,18.00
2011,08,20,08,39,18.10
2011,08,20,08,40,18.30
2011,08,20,08,41,18.40
2011,08,20,08,42,18.50
2011,08,20,08,43,18.60
2011,08,20,08,44,18.70
2011,08,20,08,45,18.80
2011,08,20,08,46,18.90
2011,08,20,08,47,19.00
2011,08,20,08,48,19.10
2011,08,20,08,49,19.10
2011,08,20,08,50,19.10
2011,08,20,08,51,19.00
2011,08,20,08,52,18.70
2011,08,20,08,53,18.40
2011,08,20,08,54,18.20
2011,08,20,08,55,17.90
2011,08,20,08,56,17.70
2011,08,20,08,57,17.50
2011,08,20,08,58,17.40
2011,08,20,08,59,17.20
2011,08,20,09,00,17.10
2011,08,20,09,01,17.00
2011,08,20,09,02,17.00
2011,08,20,09,03,17.00
2011,08,20,09,04,17.00
2011,08,20,09,05,17.00
2011,08,20,09,06,17.00
2011,08,20,09,07,17.10
2011,08,20,09,08,17.10
2011,08,20,09,09,17.20
2011,08,20,09,10,17.30
2011,08,20,09,11,17.40
2011,08,20,09,12,17.50
2011,08,20,09,13,17.70
2011,08,20,09,14,17.80
2011,08,20,09,15,17.90
2011,08,20,09,16,18.00
2011,08,20,09,17,18.20
2011,08,20,09,18,18.20
2011,08,20,09,19,18.20
2011,08,20,09,20,18.20
2011,08,20,09,21,18.10
2011,08,20,09,22,17.90
2011,08,20,09,23,17.60
2011,08,20,09,24,17.30
2011,08,20,09,25,17.00
2011,08,20,09,26,16.90
2011,08,20,09,27,16.90
2011,08,20,09,28,16.90
2011,08,20,09,29,16.90
2011,08,20,09,30,16.90
2011,08,20,09,31,16.90
2011,08,20,09,32,16.90
2011,08,20,09,33,17.00
2011,08,20,09,34,17.00
2011,08,20,09,35,17.00
2011,08,20,09,36,17.10
2011,08,20,09,37,17.30
2011,08,20,09,38,17.40
2011,08,20,09,39,17.80
2011,08,20,09,40,18.20
2011,08,20,09,41,18.60
2011,08,20,09,42,19.00
2011,08,20,09,43,19.40
2011,08,20,09,44,19.70
2011,08,20,09,45,20.00
2011,08,20,09,46,20.20
2011,08,20,09,47,20.40
2011,08,20,09,48,20.60
2011,08,20,09,49,20.70
2011,08,20,09,50,20.80
2011,08,20,09,51,20.90
2011,08,20,09,52,21.00
2011,08,20,09,53,21.00
2011,08,20,09,54,21.00
2011,08,20,09,55,21.10
2011,08,20,09,56,21.10
2011,08,20,09,57,21.10
2011,08,20,09,58,21.20
2011,08,20,09,59,21.20
2011,08,20,10,00,21.30
2011,08,20,10,01,21.30
2011,08,20,10,02,21.30
2011,08,20,10,03,21.30
2011,08,20,10,04,21.30
2011,08,20,10,05,21.40
2011,08,20,10,06,21.30
2011,08,20,10,07,21.40
2011,08,20,10,08,21.50
2011,08,20,10,09,21.60
2011,08,20,10,10,21.50
2011,08,20,10,11,21.40
2011,08,20,10,12,21.40
2011,08,20,10,13,21.40
2011,08,20,10,14,21.40
2011,08,20,10,15,21.50
2011,08,20,10,16,21.60
2011,08,20,10,17,21.60
2011,08,20,10,18,21.60
2011,08,20,10,19,21.60
2011,08,20,10,20,21.80
2011,08,20,10,21,21.80
2011,08,20,10,22,21.80
2011,08,20,10,23,21.80
2011,08,20,10,24,21.80
2011,08,20,10,25,21.80
2011,08,20,10,26,21.80
2011,08,20,10,27,21.90
2011,08,20,10,28,21.90
2011,08,20,10,29,21.90
2011,08,20,10,30,21.90
2011,08,20,10,31,21.90
2011,08,20,10,32,21.90
2011,08,20,10,33,21.90
2011,08,20,10,34,21.90
2011,08,20,10,35,22.00
2011,08,20,10,36,22.00
2011,08,20,10,37,21.70
2011,08,20,10,38,21.40
2011,08,20,10,39,21.20
2011,08,20,10,40,21.20
2011,08,20,10,41,21.20
2011,08,20,10,42,21.30
2011,08,20,10,43,21.30
2011,08,20,10,44,21.50
2011,08,20,10,45,21.60
2011,08,20,10,46,21.70
2011,08,20,10,47,21.90
2011,08,20,10,48,22.00
2011,08,20,10,49,22.10
2011,08,20,10,50,22.20
2011,08,20,10,51,22.20
2011,08,20,10,52,22.30
2011,08,20,10,53,22.30
2011,08,20,10,54,22.40
2011,08,20,10,55,22.40
2011,08,20,10,56,22.40
2011,08,20,10,57,22.40
2011,08,20,10,58,22.30
2011,08,20,10,59,22.30
2011,08,20,11,00,22.30
2011,08,20,11,01,22.30
2011,08,20,11,02,22.40
2011,08,20,11,03,22.50
2011,08,20,11,04,22.50
2011,08,20,11,05,22.50
2011,08,20,11,06,22.50
2011,08,20,11,07,22.50
2011,08,20,11,08,22.40
2011,08,20,11,09,22.40
2011,08,20,11,10,22.40
2011,08,20,11,11,22.50
2011,08,20,11,12,22.60
2011,08,20,11,13,22.60
2011,08,20,11,14,22.60
2011,08,20,11,15,22.70
2011,08,20,11,16,22.70
2011,08,20,11,17,22.80
2011,08,20,11,18,22.80
2011,08,20,11,19,22.80
2011,08,20,11,20,22.80
2011,08,20,11,21,22.80
2011,08,20,11,22,22.80
2011,08,20,11,23,22.80
2011,08,20,11,24,22.90
2011,08,20,11,25,22.90
2011,08,20,11,26,22.90
2011,08,20,11,27,22.90
2011,08,20,11,28,22.90
2011,08,20,11,29,22.90
2011,08,20,11,30,22.90
2011,08,20,11,31,22.90
2011,08,20,11,32,22.90
2011,08,20,11,33,22.90
2011,08,20,11,34,23.00
2011,08,20,11,35,23.10
2011,08,20,11,36,23.10
2011,08,20,11,37,23.20
2011,08,20,11,38,23.20
2011,08,20,11,39,23.30
2011,08,20,11,40,23.30
2011,08,20,11,41,23.30
2011,08,20,11,42,23.30
2011,08,20,11,43,23.30
2011,08,20,11,44,23.30
2011,08,20,11,45,23.30
2011,08,20,11,46,23.30
2011,08,20,11,47,23.30
2011,08,20,11,48,23.30
2011,08,20,11,49,23.30
2011,08,20,11,50,23.30
2011,08,20,11,51,23.30
2011,08,20,11,52,23.30
2011,08,20,11,53,23.30
2011,08,20,11,54,23.40
2011,08,20,11,55,23.40
2011,08,20,11,56,23.40
2011,08,20,11,57,23.40
2011,08,20,11,58,23.40
2011,08,20,11,59,23.40
2011,08,20,12,00,23.30
2011,08,20,12,01,23.30
2011,08,20,12,02,23.30
2011,08,20,12,03,23.30
2011,08,20,12,04,23.30
2011,08,20,12,05,23.40
2011,08,20,12,06,23.60
2011,08,20,12,07,23.80
2011,08,20,12,08,23.90
2011,08,20,12,09,24.00
2011,08,20,12,10,24.10
2011,08,20,12,11,24.10
2011,08,20,12,12,24.20
2011,08,20,12,13,24.30
2011,08,20,12,14,24.30
2011,08,20,12,15,24.30
2011,08,20,12,16,24.20
2011,08,20,12,17,24.10
2011,08,20,12,18,24.20
2011,08,20,12,19,24.20
2011,08,20,12,20,24.20
2011,08,20,12,21,24.20
2011,08,20,12,22,24.20
2011,08,20,12,23,24.20
2011,08,20,12,24,24.30
2011,08,20,12,25,24.40
2011,08,20,12,26,24.50
2011,08,20,12,27,24.50
2011,08,20,12,28,24.40
2011,08,20,12,29,24.30
2011,08,20,12,30,24.20
2011,08,20,12,31,24.20
2011,08,20,12,32,24.20
2011,08,20,12,33,24.20
2011,08,20,12,34,24.20
2011,08,20,12,35,24.20
2011,08,20,12,36,24.10
2011,08,20,12,37,24.10
2011,08,20,12,38,24.10
2011,08,20,12,39,24.10
2011,08,20,12,40,24.20
2011,08,20,12,41,24.30
2011,08,20,12,42,24.30
2011,08,20,12,43,24.30
2011,08,20,12,44,24.30
2011,08,20,12,45,24.30
2011,08,20,12,46,24.30
2011,08,20,12,47,24.30
2011,08,20,12,48,24.30
2011,08,20,12,49,24.40
2011,08,20,12,50,24.40
2011,08,20,12,51,24.40
2011,08,20,12,52,24.50
2011,08,20,12,53,24.50
2011,08,20,12,54,24.50
2011,08,20,12,55,24.50
2011,08,20,12,56,24.60
2011,08,20,12,57,24.60
2011,08,20,12,58,24.70
2011,08,20,12,59,24.80
2011,08,20,13,00,24.90
2011,08,20,13,01,24.90
2011,08,20,13,02,24.90
2011,08,20,13,03,25.10
2011,08,20,13,04,25.00
2011,08,20,13,05,24.80
2011,08,20,13,06,24.70
2011,08,20,13,07,24.60
2011,08,20,13,08,24.40
2011,08,20,13,09,24.10
2011,08,20,13,10,24.00
2011,08,20,13,11,24.00
2011,08,20,13,12,24.10
2011,08,20,13,13,24.20
2011,08,20,13,14,24.20
2011,08,20,13,15,24.10
2011,08,20,13,16,24.10
2011,08,20,13,17,24.20
2011,08,20,13,18,24.30
2011,08,20,13,19,24.10
2011,08,20,13,20,23.80
2011,08,20,13,21,23.50
2011,08,20,13,22,23.10
2011,08,20,13,23,22.80
2011,08,20,13,24,22.60
2011,08,20,13,25,22.40
2011,08,20,13,26,22.20
2011,08,20,13,27,22.20
2011,08,20,13,28,22.20
2011,08,20,13,29,22.10
2011,08,20,13,30,21.90
2011,08,20,13,31,21.60
2011,08,20,13,32,21.60
2011,08,20,13,33,21.50
2011,08,20,13,34,21.40
2011,08,20,13,35,21.30
2011,08,20,13,36,21.00
2011,08,20,13,37,21.00
2011,08,20,13,38,20.80
2011,08,20,13,39,20.90
2011,08,20,13,40,20.80
2011,08,20,13,41,20.90
2011,08,20,13,42,20.90
2011,08,20,13,43,21.00
2011,08,20,13,44,21.10
2011,08,20,13,45,21.10
2011,08,20,13,46,20.90
2011,08,20,13,47,20.90
2011,08,20,13,48,20.90
2011,08,20,13,49,20.80
2011,08,20,13,50,20.90
2011,08,20,13,51,21.00
2011,08,20,13,52,21.20
2011,08,20,13,53,21.30
2011,08,20,13,54,21.40
2011,08,20,13,55,21.60
2011,08,20,13,56,21.80
2011,08,20,13,57,21.90
2011,08,20,13,58,22.00
2011,08,20,13,59,22.10
2011,08,20,14,00,22.10
2011,08,20,14,01,22.10
2011,08,20,14,02,22.00
2011,08,20,14,03,22.00
2011,08,20,14,04,22.00
2011,08,20,14,05,22.10
2011,08,20,14,06,22.10
2011,08,20,14,07,22.00
2011,08,20,14,08,22.10
2011,08,20,14,09,22.20
2011,08,20,14,10,22.30
2011,08,20,14,11,22.20
2011,08,20,14,12,22.20
2011,08,20,14,13,22.20
2011,08,20,14,14,22.30
2011,08,20,14,15,22.30
2011,08,20,14,16,22.30
2011,08,20,14,17,22.10
2011,08,20,14,18,21.80
2011,08,20,14,19,21.50
2011,08,20,14,20,21.30
2011,08,20,14,21,21.20
2011,08,20,14,22,21.30
2011,08,20,14,23,21.20
2011,08,20,14,24,21.10
2011,08,20,14,25,21.00
2011,08,20,14,26,21.00
2011,08,20,14,27,21.10
2011,08,20,14,28,21.00
2011,08,20,14,29,21.00
2011,08,20,14,30,21.00
2011,08,20,14,31,20.90
2011,08,20,14,32,20.90
2011,08,20,14,33,20.90
2011,08,20,14,34,21.00
2011,08,20,14,35,21.10
2011,08,20,14,36,21.20
2011,08,20,14,37,21.30
2011,08,20,14,38,21.30
2011,08,20,14,39,21.20
2011,08,20,14,40,21.20
2011,08,20,14,41,21.30
2011,08,20,14,42,21.30
2011,08,20,14,43,21.30
2011,08,20,14,44,21.20
2011,08,20,14,45,21.10
2011,08,20,14,46,21.10
2011,08,20,14,47,21.10
2011,08,20,14,48,21.10
2011,08,20,14,49,21.10
2011,08,20,14,50,21.20
2011,08,20,14,51,21.30
2011,08,20,14,52,21.30
2011,08,20,14,53,21.40
2011,08,20,14,54,21.50
2011,08,20,14,55,21.60
2011,08,20,14,56,21.70
2011,08,20,14,57,21.90
2011,08,20,14,58,22.20
2011,08,20,14,59,22.30
2011,08,20,15,00,22.30
2011,08,20,15,01,22.30
2011,08,20,15,02,22.40
2011,08,20,15,03,22.50
2011,08,20,15,04,22.70
2011,08,20,15,05,22.90
2011,08,20,15,06,23.00
2011,08,20,15,07,23.10
2011,08,20,15,08,23.30
2011,08,20,15,09,23.60
2011,08,20,15,10,23.60
2011,08,20,15,11,23.60
2011,08,20,15,12,23.60
2011,08,20,15,13,23.50
2011,08,20,15,14,23.50
2011,08,20,15,15,23.50
2011,08,20,15,16,23.40
2011,08,20,15,17,23.30
2011,08,20,15,18,23.20
2011,08,20,15,19,23.20
2011,08,20,15,20,23.20
2011,08,20,15,21,23.20
2011,08,20,15,22,23.20
2011,08,20,15,23,23.10
2011,08,20,15,24,22.90
2011,08,20,15,25,22.70
2011,08,20,15,26,22.70
2011,08,20,15,27,22.70
2011,08,20,15,28,22.90
2011,08,20,15,29,22.90
2011,08,20,15,30,22.90
2011,08,20,15,31,23.10
2011,08,20,15,32,23.00
2011,08,20,15,33,22.90
2011,08,20,15,34,22.80
2011,08,20,15,35,22.80
2011,08,20,15,36,22.70
2011,08,20,15,37,22.70
2011,08,20,15,38,22.70
2011,08,20,15,39,22.70
2011,08,20,15,40,22.60
2011,08,20,15,41,22.70
2011,08,20,15,42,22.70
2011,08,20,15,43,22.90
2011,08,20,15,44,23.00
2011,08,20,15,45,23.10
2011,08,20,15,46,23.20
2011,08,20,15,47,23.30
2011,08,20,15,48,23.30
2011,08,20,15,49,23.30
2011,08,20,15,50,23.20
2011,08,20,15,51,23.30
2011,08,20,15,52,23.30
2011,08,20,15,53,23.30
2011,08,20,15,54,23.30
2011,08,20,15,55,23.30
2011,08,20,15,56,23.30
2011,08,20,15,57,23.30
2011,08,20,15,58,23.30
2011,08,20,15,59,23.30
2011,08,20,16,00,23.30
2011,08,20,16,01,23.30
2011,08,20,16,02,23.20
2011,08,20,16,03,23.20
2011,08,20,16,04,23.30
2011,08,20,16,05,23.30
2011,08,20,16,06,23.30
2011,08,20,16,07,23.30
2011,08,20,16,08,23.20
2011,08,20,16,09,23.20
2011,08,20,16,10,23.30
2011,08,20,16,11,23.50
2011,08,20,16,12,23.70
2011,08,20,16,13,23.80
2011,08,20,16,14,23.90
2011,08,20,16,15,24.00
2011,08,20,16,16,24.10
2011,08,20,16,17,24.10
2011,08,20,16,18,24.00
2011,08,20,16,19,23.90
2011,08,20,16,20,23.70
2011,08,20,16,21,23.50
2011,08,20,16,22,23.30
2011,08,20,16,23,23.30
2011,08,20,16,24,23.30
2011,08,20,16,25,23.30
2011,08,20,16,26,23.40
2011,08,20,16,27,23.40
2011,08,20,16,28,23.40
2011,08,20,16,29,23.40
2011,08,20,16,30,23.30
2011,08,20,16,31,23.30
2011,08,20,16,32,23.20
2011,08,20,16,33,23.20
2011,08,20,16,34,23.20
2011,08,20,16,35,23.20
2011,08,20,16,36,23.20
2011,08,20,16,37,23.20
2011,08,20,16,38,23.30
2011,08,20,16,39,23.30
2011,08,20,16,40,23.30
2011,08,20,16,41,23.30
2011,08,20,16,42,23.30
2011,08,20,16,43,23.30
2011,08,20,16,44,23.30
2011,08,20,16,45,23.40
2011,08,20,16,46,23.40
2011,08,20,16,47,23.30
2011,08,20,16,48,23.30
2011,08,20,16,49,23.20
2011,08,20,16,50,23.20
2011,08,20,16,51,23.20
2011,08,20,16,52,23.20
2011,08,20,16,53,23.20
2011,08,20,16,54,23.30
2011,08,20,16,55,23.40
2011,08,20,16,56,23.60
2011,08,20,16,57,23.70
2011,08,20,16,58,23.70
2011,08,20,16,59,23.80
2011,08,20,17,00,23.80
2011,08,20,17,01,23.90
2011,08,20,17,02,23.90
2011,08,20,17,03,24.00
2011,08,20,17,04,23.90
2011,08,20,17,05,23.80
2011,08,20,17,06,23.70
2011,08,20,17,07,23.70
2011,08,20,17,08,23.80
2011,08,20,17,09,23.80
2011,08,20,17,10,23.80
2011,08,20,17,11,23.80
2011,08,20,17,12,23.80
2011,08,20,17,13,23.80
2011,08,20,17,14,23.80
2011,08,20,17,15,23.90
2011,08,20,17,16,24.10
2011,08,20,17,17,24.10
2011,08,20,17,18,24.10
2011,08,20,17,19,24.10